Dati Storici

Data ora Umidita' aria (%) Temperatura aria (°C) Rad globale (W/m²) Gonioanemometro (°) Tacoanemometro (m/s) Pioggia (mm)
25-10-2012 23:30 87.9 % 11.97 1.141 29.582 0.451 0
25-10-2012 23:20 87.8 % 12.194 1.359 37.342 0.615 0
25-10-2012 23:10 88.1 % 12.552 1.629 337.571 0.174 0
25-10-2012 23:00 87.8 % 12.635 1.231 258.744 0.045 0
25-10-2012 22:50 86.6 % 12.57 1.411 280.32 0.043 0
25-10-2012 22:40 86.4 % 12.852 1.425 1.068 -0.022 0
25-10-2012 22:30 86.3 % 13.162 1.399 355.428 0.268 0
25-10-2012 22:20 85.4 % 12.992 1.182 333.961 0.048 0
25-10-2012 22:10 84.3 % 13.161 0.951 188.172 0.071 0
25-10-2012 22:00 86 % 13.932 1.399 207.784 0.165 0
25-10-2012 21:50 88.1 % 13.745 1.194 180.368 0.471 0
25-10-2012 21:40 87.7 % 12.894 1.566 223.74 -0.015 0
25-10-2012 21:30 86.9 % 12.509 1.233 207.403 -0.016 0
25-10-2012 21:20 85.7 % 12.378 1.284 7.095 -0.016 0
25-10-2012 21:10 84.5 % 12.467 0.976 213.067 -0.016 0
25-10-2012 21:00 84.8 % 12.924 1.259 25.864 0.26 0
25-10-2012 20:50 85.2 % 12.849 1.387 1.105 -0.015 0
25-10-2012 20:40 84.2 % 12.894 1.117 327.387 -0.015 0
25-10-2012 20:30 84.5 % 13.144 1.618 25.701 -0.011 0
25-10-2012 20:20 84 % 12.902 1.942 15.914 -0.016 0

I dati sono presentati in modo automatico a scopo informativo. In seguito a verifica i dati possono subire modifiche o essere invalidati e non riportati negli archivi definitivi.